[[{"header":{"parameterUnit":"m.s-1","parameterCategory":1,"la1":30.2991,"la2":30.254,"lo1":-89.0895,"lo2":-89.0444,"dy":0.0017,"dx":0.0017,"nx":28,"ny":28,"refTime":"2024-03-08T09:00:00:Z","depth":0,"parameterNumber":2,"parameterNumberName":"U-component_of_WINDS"},"data":[0,0,0,0,0,0,0,0,0,0,0,0,0,0,0,0,0,0,0,0,0,0,0,0,0,0,0,0,0,0,0,0,0,0,0,0,0,0,0,0,0,0,0,0,0,0,0,0,0,0,0,0,0,0,0,0,0,0,-6.3013,-6.3015,0,-6.315,-6.3152,-6.3153,-6.3124,-6.3121,-6.3119,-6.3116,-6.3254,-6.326,-6.3266,0,0,0,0,0,0,0,0,0,0,0,0,0,-6.2724,-6.273,-6.3013,-6.3015,-6.3016,-6.315,-6.3152,-6.3154,-6.3124,-6.3121,-6.3118,-6.3115,-6.3252,-6.3259,-6.3267,0,0,0,0,0,0,0,0,0,0,0,0,0,-6.2854,-6.2732,-6.3013,-6.3018,-6.302,-6.315,-6.3152,-6.3154,-6.3125,-6.3121,-6.3117,-6.3113,-6.325,-6.3259,-6.3267,-6.34,0,0,-6.3295,-6.3299,0,0,0,0,0,0,0,0,-6.2847,-6.2865,-6.3015,-6.3018,-6.302,-6.3116,-6.3101,-6.3237,-6.3126,-6.3085,-6.3116,-6.3112,-6.3211,-6.3223,-6.3257,-6.3407,-6.3412,-6.3296,-6.3302,-6.3305,-6.3308,0,0,0,0,0,0,0,-6.2838,-6.2859,-6.3067,-6.3018,-6.302,-6.3013,-6.3027,-6.3126,-6.3168,-6.3088,-6.3086,-6.3103,-6.3212,-6.3248,-6.326,-6.3414,-6.3296,-6.3304,-6.3309,-6.3313,-6.368,-6.3684,0,0,0,0,0,0,-6.2827,-6.2852,-6.3063,-6.3071,-6.2922,-6.3021,-6.3037,-6.3089,-6.3166,-6.3175,-6.3106,-6.3101,-6.3235,-6.325,-6.3265,-6.3424,-6.3305,-6.3314,-6.3319,-6.3676,-6.3681,-6.3686,0,0,0,0,0,0,-6.2821,-6.2846,-6.3057,-6.2961,-6.2987,-6.303,-6.3089,-6.3094,-6.313,-6.318,-6.3187,-6.3136,-6.3232,-6.3252,-6.3367,-6.3429,-6.3318,-6.3326,-6.3671,-6.3677,-6.3683,-6.3745,0,0,0,0,0,0,-6.2813,-6.2844,-6.2895,-6.2962,-6.2993,-6.3157,-6.3093,-6.3099,-6.3146,-6.3141,-6.321,-6.3218,-6.3231,-6.3354,-6.3376,-6.3439,-6.3333,-6.3665,-6.3674,-6.3681,-6.3738,-6.3753,-6.3766,0,0,0,0,0,-6.2803,-6.2907,-6.2898,-6.2924,-6.3057,-6.3161,-6.3178,-6.3191,-6.3152,-6.3203,-6.3235,-6.3216,-6.3419,-6.3366,-6.339,-6.3458,-6.3661,-6.3671,-6.3681,-6.3731,-6.375,-6.3766,0,0,0,0,0,0,-6.2844,-6.2915,-6.2906,-6.3035,-6.3093,-6.3156,-6.322,-6.3211,-6.328,-6.3272,-6.3285,-6.3301,-6.3418,-6.345,-6.3388,-6.359,-6.3534,-6.355,-6.3565,-6.3583,-6.3597,-6.3585,-6.3341,0,0,0,0,0,-6.2868,-6.2947,-6.3005,-6.3113,-6.3143,-6.3177,-6.3223,-6.3229,-6.3288,-6.3311,-6.3352,-6.341,-6.3487,-6.3537,-6.3611,-6.3744,-6.3758,-6.3802,-6.3816,-6.3828,-6.384,-6.3912,-6.3932,-6.3717,-6.3717,-6.3717,0,0,-6.2919,-6.2968,-6.3016,-6.3123,-6.3168,-6.3249,-6.3197,-6.3285,-6.3345,-6.3325,-6.3435,-6.3468,-6.3533,-6.3657,-6.3714,-6.3687,-6.3903,-6.384,-6.3849,-6.3855,-6.3924,-6.3944,-6.3962,-6.3724,-6.3723,-6.3722,0,0,-6.3051,-6.3097,-6.3192,-6.3239,-6.3308,-6.3331,-6.3354,-6.3419,-6.344,-6.3552,-6.3539,-6.361,-6.3743,-6.379,-6.3831,-6.3985,-6.3969,-6.4009,-6.4081,-6.4152,-6.4169,-6.4184,-6.4237,-6.4256,-6.4021,-6.4021,-6.4022,0,-6.3105,-6.3226,-6.3242,-6.3331,-6.3378,-6.3366,-6.3461,-6.3506,-6.3595,-6.3628,-6.3598,-6.3764,-6.3807,-6.3942,-6.398,-6.4015,-6.4041,-6.3999,-6.4165,-6.418,-6.4195,-6.4246,-6.4266,-6.4026,-6.4025,-6.4025,-6.4024,0,-6.3288,-6.3373,-6.3442,-6.3529,-6.3585,-6.3677,-6.3706,-6.376,-6.3762,-6.3788,-6.3902,-6.3954,-6.4038,-6.4071,-6.4073,-6.4207,-6.4188,-6.4162,-6.4105,-6.4219,-6.4267,-6.4287,-6.4032,-6.403,-6.4029,-6.4028,0,0,-6.3447,-6.3544,-6.3569,-6.3609,-6.3686,-6.3751,-6.3844,-6.3927,-6.3972,-6.4036,-6.4112,-6.4226,-6.4203,-6.425,-6.4258,-6.432,-6.4437,-6.4286,-6.4287,-6.431,-6.4587,-6.4604,-6.4626,-6.4429,-6.4433,-6.4436,-6.458,0,-6.3585,-6.3748,-6.3765,-6.391,-6.3988,-6.3979,-6.406,-6.4115,-6.4143,-6.4213,-6.4243,-6.4323,-6.4287,-6.4315,-6.4377,-6.441,-6.4492,-6.44,-6.4499,-6.4502,-6.448,-6.4652,-6.4671,-6.4804,-6.4599,-6.4603,-6.4605,0,-6.3767,-6.3837,-6.399,-6.4057,-6.409,-6.4162,-6.424,-6.4308,-6.4371,-6.4387,-6.4441,-6.4442,-6.4536,-6.4479,-6.4609,-6.4546,-6.4588,-6.4611,-6.4617,-6.4624,-6.4558,-6.4662,-6.4847,-6.4866,-6.4635,-6.4633,-6.4631,0,-6.3865,-6.3998,-6.4106,-6.4141,-6.4222,-6.4273,-6.4309,-6.4369,-6.4418,-6.4487,-6.4519,-6.4598,-6.464,-6.4701,-6.4723,-6.4679,-6.4852,-6.4797,-6.4866,-6.4866,-6.49,-6.4897,-6.5093,-6.4932,-6.4932,-6.4931,-6.4931,0,-6.4016,-6.411,-6.4152,-6.4218,-6.4323,-6.4343,-6.4446,-6.4479,-6.4533,-6.4606,-6.4604,-6.4672,-6.4698,-6.477,-6.4788,-6.4893,-6.4912,-6.4927,-6.493,-6.4926,-6.4923,-6.4951,-6.4941,-6.4937,-6.4936,-6.4935,-6.4934,0,-6.4142,-6.4174,-6.4292,-6.436,-6.438,-6.4454,-6.4512,-6.4576,-6.4604,-6.4696,-6.4719,-6.4762,-6.4847,-6.4876,-6.4979,-6.4991,-6.5113,-6.5109,-6.5091,-6.5091,-6.5158,-6.5151,-6.5376,-6.5406,-6.5228,-6.523,-6.5231,0,-6.4235,-6.4307,-6.4383,-6.4432,-6.4471,-6.455,-6.46,-6.4624,-6.4677,-6.4756,-6.481,-6.4895,-6.4964,-6.5101,-6.5141,-6.522,-6.5217,-6.5291,-6.5229,-6.5222,-6.5216,-6.521,-6.5217,-6.5301,-6.5303,-6.5305,-6.5306,0,-6.4395,-6.4408,-6.4481,-6.4562,-6.4623,-6.4686,-6.4748,-6.4788,-6.4821,-6.488,-6.4968,-6.5022,-6.5128,-6.5212,-6.5294,-6.533,-6.5323,-6.5326,-6.5346,-6.534,-6.5326,-6.5333,-6.512,-6.532,-6.5318,-6.5317,-6.5316,-6.5316,-6.4506,-6.4569,-6.4633,-6.4716,-6.4765,-6.4823,-6.4887,-6.4924,-6.4998,-6.5086,-6.5096,-6.519,-6.5253,-6.5362,-6.5403,-6.5477,-6.5456,-6.5485,-6.5492,-6.5498,-6.5503,-6.5317,-6.5492,-6.5492,-6.5491,-6.5491,-6.5491,0,-6.4664,-6.4706,-6.4782,-6.4869,-6.4934,-6.4924,-6.4992,-6.5047,-6.513,-6.519,-6.5259,-6.536,-6.5442,-6.549,-6.5572,-6.5622,-6.5621,-6.5643,-6.5638,-6.5646,-6.5518,-6.5491,-6.5642,-6.5642,-6.5642,-6.5642,-6.5642,-6.5642,-6.4754,-6.4861,-6.4882,-6.5013,-6.5054,-6.5147,-6.5187,-6.524,-6.5288,-6.5401,-6.547,-6.5502,-6.5557,-6.5643,-6.5718,-6.573,-6.576,-6.5783,-6.5793,-6.5671,-6.5655,-6.564,-6.5615,-6.579,-6.579,-6.5915,-6.5916,-6.5917]},{"header":{"parameterUnit":"m.s-1","parameterCategory":1,"la1":30.2991,"la2":30.254,"lo1":-89.0895,"lo2":-89.0444,"dy":0.0017,"dx":0.0017,"nx":28,"ny":28,"refTime":"2024-03-08T09:00:00:Z","depth":0,"parameterNumber":3,"parameterNumberName":"V-component_of_WINDS"},"data":[0,0,0,0,0,0,0,0,0,0,0,0,0,0,0,0,0,0,0,0,0,0,0,0,0,0,0,0,0,0,0,0,0,0,0,0,0,0,0,0,0,0,0,0,0,0,0,0,0,0,0,0,0,0,0,0,0,0,2.6077,2.6078,0,2.6141,2.6142,2.6143,2.6141,2.614,2.6139,2.6138,2.6203,2.6205,2.6208,0,0,0,0,0,0,0,0,0,0,0,0,0,2.5956,2.5958,2.6077,2.6078,2.6079,2.6141,2.6142,2.6143,2.6141,2.614,2.6139,2.6138,2.6202,2.6205,2.6208,0,0,0,0,0,0,0,0,0,0,0,0,0,2.6013,2.5959,2.6077,2.6085,2.6087,2.6141,2.6142,2.6143,2.6141,2.614,2.6138,2.6137,2.6201,2.6205,2.6209,2.6258,0,0,2.622,2.6222,0,0,0,0,0,0,0,0,2.601,2.6018,2.6083,2.6085,2.6087,2.6132,2.6123,2.6182,2.6141,2.612,2.6138,2.6136,2.618,2.6186,2.62,2.6261,2.6264,2.6221,2.6223,2.6225,2.6226,0,0,0,0,0,0,0,2.6006,2.6015,2.6103,2.6084,2.6086,2.6087,2.6093,2.6134,2.6157,2.6122,2.6122,2.613,2.6181,2.6197,2.6202,2.6265,2.622,2.6224,2.6226,2.6228,2.6374,2.6376,0,0,0,0,0,0,2.6,2.6012,2.61,2.6104,2.6044,2.609,2.6097,2.6118,2.6156,2.6161,2.6131,2.6129,2.6191,2.6198,2.6204,2.6268,2.6224,2.6228,2.623,2.6373,2.6375,2.6376,0,0,0,0,0,0,2.5998,2.6008,2.6098,2.6058,2.607,2.6093,2.6117,2.612,2.6136,2.6163,2.6167,2.6143,2.619,2.6199,2.6246,2.627,2.623,2.6233,2.6371,2.6373,2.6376,2.6394,0,0,0,0,0,0,2.5994,2.6007,2.6026,2.6059,2.6072,2.6138,2.6119,2.6123,2.6143,2.6142,2.6175,2.618,2.619,2.624,2.625,2.6275,2.6236,2.6369,2.6372,2.6375,2.6391,2.6397,2.6401,0,0,0,0,0,2.599,2.6027,2.6027,2.6037,2.6095,2.6139,2.6147,2.6158,2.6145,2.6164,2.6182,2.6179,2.6266,2.6245,2.6256,2.6282,2.6367,2.6371,2.6375,2.6389,2.6396,2.6401,0,0,0,0,0,0,2.5996,2.6032,2.6031,2.608,2.6107,2.6139,2.6163,2.6164,2.6194,2.6192,2.6204,2.6212,2.626,2.6275,2.6252,2.6334,2.6315,2.6321,2.6322,2.6329,2.6334,2.633,2.6239,0,0,0,0,0,2.6003,2.6035,2.6065,2.6106,2.6119,2.6139,2.6159,2.6165,2.6193,2.6204,2.6225,2.6252,2.6286,2.6308,2.634,2.6393,2.6402,2.6417,2.6422,2.6426,2.6431,2.6464,2.6472,2.6388,2.6388,2.6388,0,0,2.6018,2.6041,2.6061,2.6108,2.6129,2.6163,2.6148,2.6184,2.6211,2.6209,2.6256,2.6273,2.6304,2.6355,2.6379,2.637,2.6457,2.6431,2.6434,2.6437,2.6469,2.6476,2.6483,2.6391,2.639,2.639,0,0,2.6063,2.6083,2.6121,2.6143,2.6176,2.619,2.6199,2.6232,2.6243,2.629,2.6291,2.6322,2.6379,2.6403,2.6422,2.648,2.6479,2.649,2.6517,2.6548,2.6555,2.6561,2.6584,2.6592,2.6495,2.6495,2.6495,0,2.6077,2.6129,2.614,2.6178,2.6199,2.6201,2.624,2.6261,2.6303,2.6318,2.6308,2.6382,2.6403,2.6462,2.6476,2.6491,2.6503,2.6487,2.6553,2.6559,2.6565,2.6587,2.6596,2.6497,2.6496,2.6496,2.6496,0,2.6146,2.6182,2.6209,2.6251,2.6275,2.6313,2.6332,2.6355,2.6361,2.6376,2.6425,2.6451,2.649,2.6504,2.6509,2.6564,2.6558,2.655,2.6531,2.6574,2.6595,2.6604,2.6498,2.6498,2.6498,2.6497,0,0,2.6196,2.6246,2.6256,2.6276,2.6314,2.6342,2.6382,2.6421,2.6442,2.6471,2.6506,2.6556,2.655,2.6572,2.658,2.6607,2.6655,2.6596,2.6597,2.6608,2.6721,2.6729,2.6738,2.6654,2.6656,2.6657,2.672,0,2.6247,2.6317,2.633,2.6392,2.6427,2.643,2.6465,2.6492,2.6508,2.6541,2.6558,2.6595,2.6582,2.6596,2.6624,2.6643,2.6678,2.6639,2.6689,2.669,2.6682,2.6749,2.6756,2.6814,2.6728,2.6729,2.673,0,2.6316,2.6349,2.6414,2.6451,2.6466,2.6497,2.6535,2.6566,2.6598,2.6608,2.6635,2.664,2.6683,2.6661,2.6722,2.6695,2.6716,2.6729,2.6732,2.6738,2.6714,2.6759,2.6832,2.6842,2.6743,2.6742,2.6741,0,2.6349,2.6409,2.6457,2.6474,2.6517,2.6539,2.6558,2.6589,2.6613,2.6647,2.6663,2.6701,2.6722,2.6752,2.6769,2.6751,2.6829,2.6808,2.684,2.684,2.6857,2.6856,2.6937,2.6867,2.6867,2.6867,2.6867,0,2.6406,2.6446,2.6473,2.6503,2.6549,2.6564,2.661,2.6629,2.6657,2.6691,2.6696,2.6728,2.6746,2.6782,2.6794,2.6844,2.6853,2.6864,2.6867,2.6865,2.6864,2.688,2.6877,2.6869,2.6869,2.6868,2.6868,0,2.6451,2.647,2.6523,2.656,2.6571,2.6604,2.6636,2.6666,2.6682,2.6726,2.6737,2.6763,2.6805,2.6824,2.6876,2.6885,2.6943,2.6942,2.6932,2.6934,2.6965,2.6963,2.7061,2.7075,2.6994,2.6995,2.6996,0,2.6487,2.6519,2.656,2.6584,2.6604,2.6641,2.6666,2.6683,2.6709,2.675,2.6775,2.6818,2.6853,2.6921,2.6945,2.6985,2.6987,2.7019,2.6993,2.6991,2.6991,2.699,2.6994,2.7024,2.7024,2.7025,2.7026,0,2.655,2.6558,2.6594,2.6635,2.6665,2.6697,2.6729,2.6748,2.677,2.6799,2.6843,2.687,2.6925,2.6968,2.701,2.7031,2.7033,2.7033,2.7043,2.7042,2.7037,2.7043,2.6947,2.7031,2.7031,2.703,2.703,2.703,2.6593,2.6623,2.6657,2.6698,2.6724,2.6754,2.6785,2.6807,2.6844,2.689,2.6897,2.6945,2.6979,2.7037,2.7059,2.7097,2.709,2.7103,2.7107,2.7111,2.7115,2.7029,2.7105,2.7104,2.7104,2.7104,2.7104,0,2.6659,2.6682,2.6719,2.6764,2.6797,2.6796,2.6832,2.686,2.6902,2.6934,2.6969,2.7021,2.7064,2.7092,2.7136,2.7161,2.7164,2.7173,2.7172,2.7177,2.7117,2.7106,2.717,2.717,2.717,2.717,2.717,2.717,2.6697,2.6748,2.6761,2.6826,2.6849,2.6896,2.6917,2.6946,2.6972,2.703,2.7066,2.7085,2.7116,2.7163,2.7203,2.721,2.7227,2.7237,2.7244,2.7188,2.7181,2.7174,2.7164,2.7239,2.724,2.7301,2.7302,2.7302]}]]